owner,sensor,date,latitude,longitude,vertical_datum,direction_of_sea_water_velocity,sea_water_speed,upward_sea_water_velocity,qcFlag 
TABS,ioos:station:wmo:42047:1,2017-01-01T00:00:00Z,27.8966,-93.5973,2.0,64.49225002,15.51200825,-99999.0,'11111222,11111222,99999999' 
TABS,ioos:station:wmo:42047:1,2017-01-01T00:30:00Z,27.8966,-93.5973,2.0,69.76008887,22.48862824,-99999.0,'11111222,11111222,99999999' 
TABS,ioos:station:wmo:42047:1,2017-01-01T01:00:00Z,27.8966,-93.5973,2.0,69.30949818,19.44409936,-99999.0,'11111222,11111222,99999999' 
TABS,ioos:station:wmo:42047:1,2017-01-01T01:30:00Z,27.8966,-93.5973,2.0,73.0001346,18.43553634,-99999.0,'11111222,11111222,99999999' 
TABS,ioos:station:wmo:42047:1,2017-01-01T02:00:00Z,27.8966,-93.5973,2.0,75.95579833,17.38980448,-99999.0,'11111222,11111222,99999999' 
TABS,ioos:station:wmo:42047:1,2017-01-01T02:30:00Z,27.8966,-93.5973,2.0,79.90350084,15.74381148,-99999.0,'11111222,11111222,99999999' 
TABS,ioos:station:wmo:42047:1,2017-01-01T03:00:00Z,27.8966,-93.5973,2.0,89.93862279,18.67001071,-99999.0,'11111222,11111222,99999999' 
TABS,ioos:station:wmo:42047:1,2017-01-01T03:30:00Z,27.8966,-93.5973,2.0,96.86469128,15.56155841,-99999.0,'11111222,11111222,99999999' 
TABS,ioos:station:wmo:42047:1,2017-01-01T04:00:00Z,27.8966,-93.5973,2.0,97.37851859,11.21284977,-99999.0,'11111222,11111222,99999999' 
TABS,ioos:station:wmo:42047:1,2017-01-01T04:30:00Z,27.8966,-93.5973,2.0,84.23170824,13.83002892,-99999.0,'11111222,11111222,99999999' 
TABS,ioos:station:wmo:42047:1,2017-01-01T05:00:00Z,27.8966,-93.5973,2.0,84.39908071,14.03701535,-99999.0,'11111222,11111222,99999999' 
TABS,ioos:station:wmo:42047:1,2017-01-01T05:30:00Z,27.8966,-93.5973,2.0,101.7279661,11.02005898,-99999.0,'11111222,11111222,99999999' 
TABS,ioos:station:wmo:42047:1,2017-01-01T06:00:00Z,27.8966,-93.5973,2.0,74.83635827,13.18921529,-99999.0,'11111222,11111222,99999999' 
TABS,ioos:station:wmo:42047:1,2017-01-01T06:30:00Z,27.8966,-93.5973,2.0,83.61358792,12.31643211,-99999.0,'11111222,11111222,99999999' 
TABS,ioos:station:wmo:42047:1,2017-01-01T07:00:00Z,27.8966,-93.5973,2.0,95.99058071,11.40226732,-99999.0,'11111222,11111222,99999999' 
TABS,ioos:station:wmo:42047:1,2017-01-01T07:30:00Z,27.8966,-93.5973,2.0,81.73627161,8.488132892,-99999.0,'11133222,11111222,99999999' 
TABS,ioos:station:wmo:42047:1,2017-01-01T08:00:00Z,27.8966,-93.5973,2.0,77.24463338,9.873666999,-99999.0,'11133222,11111222,99999999' 
TABS,ioos:station:wmo:42047:1,2017-01-01T08:30:00Z,27.8966,-93.5973,2.0,71.10489819,7.874325368,-99999.0,'11133222,11111222,99999999' 
TABS,ioos:station:wmo:42047:1,2017-01-01T09:00:00Z,27.8966,-93.5973,2.0,63.70274566,9.570475432,-99999.0,'11133222,11111222,99999999' 
TABS,ioos:station:wmo:42047:1,2017-01-01T09:30:00Z,27.8966,-93.5973,2.0,68.8969693,10.66527543,-99999.0,'11111222,11111222,99999999' 
TABS,ioos:station:wmo:42047:1,2017-01-01T10:00:00Z,27.8966,-93.5973,2.0,74.002586,9.071295387,-99999.0,'11133222,11111222,99999999' 
TABS,ioos:station:wmo:42047:1,2017-01-01T10:30:00Z,27.8966,-93.5973,2.0,78.75331092,10.66480192,-99999.0,'11111222,11111222,99999999' 
TABS,ioos:station:wmo:42047:1,2017-01-01T11:00:00Z,27.8966,-93.5973,2.0,66.44092554,9.807471642,-99999.0,'11133222,11111222,99999999' 
TABS,ioos:station:wmo:42047:1,2017-01-01T11:30:00Z,27.8966,-93.5973,2.0,73.93249772,7.732043714,-99999.0,'11133222,11111222,99999999' 
TABS,ioos:station:wmo:42047:1,2017-01-01T12:00:00Z,27.8966,-93.5973,2.0,70.16221603,7.749903225,-99999.0,'11133222,11111222,99999999' 
TABS,ioos:station:wmo:42047:1,2017-01-01T12:30:00Z,27.8966,-93.5973,2.0,48.24296968,9.624993506,-99999.0,'11133222,11111222,99999999' 
TABS,ioos:station:wmo:42047:1,2017-01-01T13:00:00Z,27.8966,-93.5973,2.0,43.28788572,12.5426034,-99999.0,'11111222,11111222,99999999' 
TABS,ioos:station:wmo:42047:1,2017-01-01T13:30:00Z,27.8966,-93.5973,2.0,43.53130795,12.4138028,-99999.0,'11111222,11111222,99999999' 
TABS,ioos:station:wmo:42047:1,2017-01-01T14:00:00Z,27.8966,-93.5973,2.0,43.3757844,13.22113838,-99999.0,'11111222,11111222,99999999' 
TABS,ioos:station:wmo:42047:1,2017-01-01T14:30:00Z,27.8966,-93.5973,2.0,42.10507555,17.36041474,-99999.0,'11111222,11111222,99999999' 
TABS,ioos:station:wmo:42047:1,2017-01-01T15:00:00Z,27.8966,-93.5973,2.0,41.11533814,17.53410962,-99999.0,'11111222,11111222,99999999' 
TABS,ioos:station:wmo:42047:1,2017-01-01T15:30:00Z,27.8966,-93.5973,2.0,42.59879159,17.55166089,-99999.0,'11111222,11111222,99999999' 
TABS,ioos:station:wmo:42047:1,2017-01-01T16:00:00Z,27.8966,-93.5973,2.0,38.77779837,16.70125744,-99999.0,'11111222,11111222,99999999' 
TABS,ioos:station:wmo:42047:1,2017-01-01T16:30:00Z,27.8966,-93.5973,2.0,15.13208763,20.80123314,-99999.0,'11111222,11111222,99999999' 
TABS,ioos:station:wmo:42047:1,2017-01-01T17:00:00Z,27.8966,-93.5973,2.0,44.81237443,21.5810148,-99999.0,'11111222,11111222,99999999' 
TABS,ioos:station:wmo:42047:1,2017-01-01T17:30:00Z,27.8966,-93.5973,2.0,38.72397439,20.9569702,-99999.0,'11111222,11111222,99999999' 
TABS,ioos:station:wmo:42047:1,2017-01-01T18:00:00Z,27.8966,-93.5973,2.0,31.75637196,21.45137991,-99999.0,'11111222,11111222,99999999' 
TABS,ioos:station:wmo:42047:1,2017-01-01T18:30:00Z,27.8966,-93.5973,2.0,15.73433513,21.60971078,-99999.0,'11111222,11111222,99999999' 
TABS,ioos:station:wmo:42047:1,2017-01-01T19:00:00Z,27.8966,-93.5973,2.0,40.16746327,22.91393681,-99999.0,'11111222,11111222,99999999' 
TABS,ioos:station:wmo:42047:1,2017-01-01T19:30:00Z,27.8966,-93.5973,2.0,47.65098171,19.41671702,-99999.0,'11111222,11111222,99999999' 
TABS,ioos:station:wmo:42047:1,2017-01-01T20:00:00Z,27.8966,-93.5973,2.0,47.16657336,19.82730441,-99999.0,'11111222,11111222,99999999' 
TABS,ioos:station:wmo:42047:1,2017-01-01T20:30:00Z,27.8966,-93.5973,2.0,42.01965067,21.07908205,-99999.0,'11111222,11111222,99999999' 
TABS,ioos:station:wmo:42047:1,2017-01-01T21:00:00Z,27.8966,-93.5973,2.0,50.20604874,19.09285992,-99999.0,'11111222,11111222,99999999' 
TABS,ioos:station:wmo:42047:1,2017-01-01T21:30:00Z,27.8966,-93.5973,2.0,43.89604317,19.81681105,-99999.0,'11111222,11111222,99999999' 
TABS,ioos:station:wmo:42047:1,2017-01-01T22:00:00Z,27.8966,-93.5973,2.0,56.98860815,21.31030267,-99999.0,'11111222,11111222,99999999' 
TABS,ioos:station:wmo:42047:1,2017-01-01T22:30:00Z,27.8966,-93.5973,2.0,59.38404663,19.49803323,-99999.0,'11111222,11111222,99999999' 
TABS,ioos:station:wmo:42047:1,2017-01-01T23:00:00Z,27.8966,-93.5973,2.0,59.52037304,18.47277185,-99999.0,'11111222,11111222,99999999' 
TABS,ioos:station:wmo:42047:1,2017-01-01T23:30:00Z,27.8966,-93.5973,2.0,59.18757394,18.83918523,-99999.0,'11111222,11111222,99999999' 
TABS,ioos:station:wmo:42047:1,2017-01-02T00:00:00Z,27.8966,-93.5973,2.0,42.79585152,9.376102602,-99999.0,'11133222,11111222,99999999' 
TABS,ioos:station:wmo:42047:1,2017-01-02T00:30:00Z,27.8966,-93.5973,2.0,56.75539754,17.83969731,-99999.0,'11111222,11111222,99999999' 
TABS,ioos:station:wmo:42047:1,2017-01-02T01:00:00Z,27.8966,-93.5973,2.0,65.8521199,15.0576625,-99999.0,'11111222,11111222,99999999' 
TABS,ioos:station:wmo:42047:1,2017-01-02T01:30:00Z,27.8966,-93.5973,2.0,74.11475746,15.70993635,-99999.0,'11111222,11111222,99999999' 
TABS,ioos:station:wmo:42047:1,2017-01-02T02:00:00Z,27.8966,-93.5973,2.0,81.65309406,14.94834439,-99999.0,'11111222,11111222,99999999' 
TABS,ioos:station:wmo:42047:1,2017-01-02T02:30:00Z,27.8966,-93.5973,2.0,93.55444178,13.06513299,-99999.0,'11111222,11111222,99999999' 
TABS,ioos:station:wmo:42047:1,2017-01-02T03:00:00Z,27.8966,-93.5973,2.0,96.82244479,14.56312123,-99999.0,'11111222,11111222,99999999' 
TABS,ioos:station:wmo:42047:1,2017-01-02T03:30:00Z,27.8966,-93.5973,2.0,96.13490362,10.48001908,-99999.0,'11111222,11111222,99999999' 
TABS,ioos:station:wmo:42047:1,2017-01-02T04:00:00Z,27.8966,-93.5973,2.0,97.23982047,12.37869137,-99999.0,'11111222,11111222,99999999' 
TABS,ioos:station:wmo:42047:1,2017-01-02T04:30:00Z,27.8966,-93.5973,2.0,106.2120844,12.39280436,-99999.0,'11111222,11111222,99999999' 
TABS,ioos:station:wmo:42047:1,2017-01-02T05:00:00Z,27.8966,-93.5973,2.0,101.0234302,11.76711519,-99999.0,'11111222,11111222,99999999' 
TABS,ioos:station:wmo:42047:1,2017-01-02T05:30:00Z,27.8966,-93.5973,2.0,94.57391056,11.28594258,-99999.0,'11111222,11111222,99999999' 
TABS,ioos:station:wmo:42047:1,2017-01-02T06:00:00Z,27.8966,-93.5973,2.0,91.60651669,10.34406593,-99999.0,'11111222,11111222,99999999' 
TABS,ioos:station:wmo:42047:1,2017-01-02T06:30:00Z,27.8966,-93.5973,2.0,97.7981789,7.812246796,-99999.0,'11133222,11111222,99999999' 
TABS,ioos:station:wmo:42047:1,2017-01-02T07:00:00Z,27.8966,-93.5973,2.0,110.3626567,10.05857346,-99999.0,'11111222,11111222,99999999' 
TABS,ioos:station:wmo:42047:1,2017-01-02T07:30:00Z,27.8966,-93.5973,2.0,98.34839762,6.680793366,-99999.0,'11133222,11111222,99999999' 
TABS,ioos:station:wmo:42047:1,2017-01-02T08:00:00Z,27.8966,-93.5973,2.0,95.56508582,5.877703633,-99999.0,'11133222,11111222,99999999' 
TABS,ioos:station:wmo:42047:1,2017-01-02T08:30:00Z,27.8966,-93.5973,2.0,134.2221736,4.688549882,-99999.0,'11133222,11111222,99999999' 
TABS,ioos:station:wmo:42047:1,2017-01-02T09:00:00Z,27.8966,-93.5973,2.0,109.2209952,7.836861617,-99999.0,'11133222,11111222,99999999' 
TABS,ioos:station:wmo:42047:1,2017-01-02T09:30:00Z,27.8966,-93.5973,2.0,114.7342447,4.899489769,-99999.0,'11133222,11111222,99999999' 
TABS,ioos:station:wmo:42047:1,2017-01-02T10:00:00Z,27.8966,-93.5973,2.0,77.0054136,3.869082579,-99999.0,'11133222,11111222,99999999' 
TABS,ioos:station:wmo:42047:1,2017-01-02T10:30:00Z,27.8966,-93.5973,2.0,117.8134811,5.336525087,-99999.0,'11133222,11111222,99999999' 
TABS,ioos:station:wmo:42047:1,2017-01-02T11:00:00Z,27.8966,-93.5973,2.0,90.32461775,3.530056657,-99999.0,'11133222,11111222,99999999' 
TABS,ioos:station:wmo:42047:1,2017-01-02T11:30:00Z,27.8966,-93.5973,2.0,142.1792718,2.772381648,-99999.0,'11133222,11111222,99999999' 
TABS,ioos:station:wmo:42047:1,2017-01-02T12:00:00Z,27.8966,-93.5973,2.0,350.8773356,1.387551801,-99999.0,'11133222,11111222,99999999' 
TABS,ioos:station:wmo:42047:1,2017-01-02T12:30:00Z,27.8966,-93.5973,2.0,167.6482593,2.804924241,-99999.0,'11133222,11111222,99999999' 
TABS,ioos:station:wmo:42047:1,2017-01-02T13:00:00Z,27.8966,-93.5973,2.0,203.8316343,1.781937148,-99999.0,'11133222,11111222,99999999' 
TABS,ioos:station:wmo:42047:1,2017-01-02T13:30:00Z,27.8966,-93.5973,2.0,24.08501751,2.376930794,-99999.0,'11133222,11111222,99999999' 
TABS,ioos:station:wmo:42047:1,2017-01-02T14:00:00Z,27.8966,-93.5973,2.0,84.49631615,3.857784338,-99999.0,'11133222,11111222,99999999' 
TABS,ioos:station:wmo:42047:1,2017-01-02T14:30:00Z,27.8966,-93.5973,2.0,20.39775036,5.078434798,-99999.0,'11133222,11111222,99999999' 
TABS,ioos:station:wmo:42047:1,2017-01-02T15:00:00Z,27.8966,-93.5973,2.0,312.06965,2.074536093,-99999.0,'11133222,11111222,99999999' 
TABS,ioos:station:wmo:42047:1,2017-01-02T15:30:00Z,27.8966,-93.5973,2.0,340.2285403,5.557634389,-99999.0,'11133222,11111222,99999999' 
TABS,ioos:station:wmo:42047:1,2017-01-02T16:00:00Z,27.8966,-93.5973,2.0,315.1056384,7.693334778,-99999.0,'11133222,11111222,99999999' 
TABS,ioos:station:wmo:42047:1,2017-01-02T16:30:00Z,27.8966,-93.5973,2.0,346.6793066,8.1595343,-99999.0,'11133222,11111222,99999999' 
TABS,ioos:station:wmo:42047:1,2017-01-02T17:00:00Z,27.8966,-93.5973,2.0,341.8112073,11.78907969,-99999.0,'11111222,11111222,99999999' 
TABS,ioos:station:wmo:42047:1,2017-01-02T17:30:00Z,27.8966,-93.5973,2.0,352.6101804,13.13914,-99999.0,'11111222,11111222,99999999' 
TABS,ioos:station:wmo:42047:1,2017-01-02T18:00:00Z,27.8966,-93.5973,2.0,2.513140354,6.386141245,-99999.0,'11133222,11111222,99999999' 
TABS,ioos:station:wmo:42047:1,2017-01-02T18:30:00Z,27.8966,-93.5973,2.0,16.96728351,9.629132879,-99999.0,'11133222,11111222,99999999' 
TABS,ioos:station:wmo:42047:1,2017-01-02T19:00:00Z,27.8966,-93.5973,2.0,19.14172183,12.56468464,-99999.0,'11111222,11111222,99999999' 
TABS,ioos:station:wmo:42047:1,2017-01-02T19:30:00Z,27.8966,-93.5973,2.0,21.51728979,12.35074897,-99999.0,'11111222,11111222,99999999' 
TABS,ioos:station:wmo:42047:1,2017-01-02T20:00:00Z,27.8966,-93.5973,2.0,18.63189495,11.04906331,-99999.0,'11111222,11111222,99999999' 
TABS,ioos:station:wmo:42047:1,2017-01-02T20:30:00Z,27.8966,-93.5973,2.0,24.62681473,14.01474937,-99999.0,'11111222,11111222,99999999' 
TABS,ioos:station:wmo:42047:1,2017-01-02T21:00:00Z,27.8966,-93.5973,2.0,51.22591974,10.95404948,-99999.0,'11111222,11111222,99999999' 
TABS,ioos:station:wmo:42047:1,2017-01-02T21:30:00Z,27.8966,-93.5973,2.0,20.88127676,10.52099805,-99999.0,'11111222,11111222,99999999' 
TABS,ioos:station:wmo:42047:1,2017-01-02T22:00:00Z,27.8966,-93.5973,2.0,58.42538913,10.29393025,-99999.0,'11111222,11111222,99999999' 
TABS,ioos:station:wmo:42047:1,2017-01-02T22:30:00Z,27.8966,-93.5973,2.0,59.39157196,9.957399259,-99999.0,'11133222,11111222,99999999' 
TABS,ioos:station:wmo:42047:1,2017-01-02T23:00:00Z,27.8966,-93.5973,2.0,70.58335968,10.88932046,-99999.0,'11111222,11111222,99999999' 
TABS,ioos:station:wmo:42047:1,2017-01-02T23:30:00Z,27.8966,-93.5973,2.0,86.48346073,5.38013011,-99999.0,'11133222,11111222,99999999' 
TABS,ioos:station:wmo:42047:1,2017-01-03T00:00:00Z,27.8966,-93.5973,2.0,53.44645999,6.88410488,-99999.0,'11133222,11111222,99999999' 
TABS,ioos:station:wmo:42047:1,2017-01-03T00:30:00Z,27.8966,-93.5973,2.0,335.4498155,0.890505474,-99999.0,'11133222,11111222,99999999' 
TABS,ioos:station:wmo:42047:1,2017-01-03T01:00:00Z,27.8966,-93.5973,2.0,52.02086796,2.892542135,-99999.0,'11133222,11111222,99999999' 
TABS,ioos:station:wmo:42047:1,2017-01-03T01:30:00Z,27.8966,-93.5973,2.0,128.880462,3.648246154,-99999.0,'11133222,11111222,99999999' 
TABS,ioos:station:wmo:42047:1,2017-01-03T02:00:00Z,27.8966,-93.5973,2.0,132.6930237,5.972821779,-99999.0,'11133222,11111222,99999999' 
TABS,ioos:station:wmo:42047:1,2017-01-03T02:30:00Z,27.8966,-93.5973,2.0,139.9146766,7.345563287,-99999.0,'11133222,11111222,99999999' 
TABS,ioos:station:wmo:42047:1,2017-01-03T03:00:00Z,27.8966,-93.5973,2.0,133.8050984,6.443143643,-99999.0,'11133222,11111222,99999999' 
TABS,ioos:station:wmo:42047:1,2017-01-03T03:30:00Z,27.8966,-93.5973,2.0,144.6985338,5.918217637,-99999.0,'11133222,11111222,99999999' 
TABS,ioos:station:wmo:42047:1,2017-01-03T04:00:00Z,27.8966,-93.5973,2.0,157.5453107,5.864639801,-99999.0,'11133222,11111222,99999999' 
TABS,ioos:station:wmo:42047:1,2017-01-03T04:30:00Z,27.8966,-93.5973,2.0,156.311768,6.147991542,-99999.0,'11133222,11111222,99999999' 
TABS,ioos:station:wmo:42047:1,2017-01-03T05:00:00Z,27.8966,-93.5973,2.0,175.515194,5.627228447,-99999.0,'11133222,11111222,99999999' 
TABS,ioos:station:wmo:42047:1,2017-01-03T05:30:00Z,27.8966,-93.5973,2.0,180.9073674,5.050633624,-99999.0,'11133222,11111222,99999999' 
TABS,ioos:station:wmo:42047:1,2017-01-03T06:00:00Z,27.8966,-93.5973,2.0,197.7897434,6.742403132,-99999.0,'11133222,11111222,99999999' 
TABS,ioos:station:wmo:42047:1,2017-01-03T06:30:00Z,27.8966,-93.5973,2.0,181.1165223,10.26194913,-99999.0,'11111222,11111222,99999999' 
TABS,ioos:station:wmo:42047:1,2017-01-03T07:00:00Z,27.8966,-93.5973,2.0,165.3930863,5.115329901,-99999.0,'11133222,11111222,99999999' 
TABS,ioos:station:wmo:42047:1,2017-01-03T07:30:00Z,27.8966,-93.5973,2.0,182.2387796,6.655080766,-99999.0,'11133222,11111222,99999999' 
TABS,ioos:station:wmo:42047:1,2017-01-03T08:00:00Z,27.8966,-93.5973,2.0,199.2346899,5.888735008,-99999.0,'11133222,11111222,99999999' 
TABS,ioos:station:wmo:42047:1,2017-01-03T08:30:00Z,27.8966,-93.5973,2.0,201.3833747,3.565445274,-99999.0,'11133222,11111222,99999999' 
TABS,ioos:station:wmo:42047:1,2017-01-03T09:00:00Z,27.8966,-93.5973,2.0,220.8096864,3.8711497,-99999.0,'11133222,11111222,99999999' 
TABS,ioos:station:wmo:42047:1,2017-01-03T09:30:00Z,27.8966,-93.5973,2.0,199.2731083,3.241681662,-99999.0,'11133222,11111222,99999999' 
TABS,ioos:station:wmo:42047:1,2017-01-03T10:00:00Z,27.8966,-93.5973,2.0,246.9381135,4.39089968,-99999.0,'11133222,11111222,99999999' 
TABS,ioos:station:wmo:42047:1,2017-01-03T10:30:00Z,27.8966,-93.5973,2.0,216.4347278,5.2701518,-99999.0,'11133222,11111222,99999999' 
TABS,ioos:station:wmo:42047:1,2017-01-03T11:00:00Z,27.8966,-93.5973,2.0,240.7684473,5.672336379,-99999.0,'11133222,11111222,99999999' 
TABS,ioos:station:wmo:42047:1,2017-01-03T11:30:00Z,27.8966,-93.5973,2.0,245.5486967,6.788851155,-99999.0,'11133222,11111222,99999999' 
TABS,ioos:station:wmo:42047:1,2017-01-03T12:00:00Z,27.8966,-93.5973,2.0,236.9378069,7.588754839,-99999.0,'11133222,11111222,99999999' 
TABS,ioos:station:wmo:42047:1,2017-01-03T12:30:00Z,27.8966,-93.5973,2.0,252.307124,11.71405993,-99999.0,'11111222,11111222,99999999' 
TABS,ioos:station:wmo:42047:1,2017-01-03T13:00:00Z,27.8966,-93.5973,2.0,270.5566718,17.51082522,-99999.0,'11111222,11111222,99999999' 
TABS,ioos:station:wmo:42047:1,2017-01-03T13:30:00Z,27.8966,-93.5973,2.0,272.4447273,14.30301367,-99999.0,'11111222,11111222,99999999' 
TABS,ioos:station:wmo:42047:1,2017-01-03T14:00:00Z,27.8966,-93.5973,2.0,278.1519794,15.0924882,-99999.0,'11111222,11111222,99999999' 
TABS,ioos:station:wmo:42047:1,2017-01-03T14:30:00Z,27.8966,-93.5973,2.0,299.9819902,14.7081644,-99999.0,'11111222,11111222,99999999' 
TABS,ioos:station:wmo:42047:1,2017-01-03T15:00:00Z,27.8966,-93.5973,2.0,293.3431041,13.04796153,-99999.0,'11111222,11111222,99999999' 
TABS,ioos:station:wmo:42047:1,2017-01-03T15:30:00Z,27.8966,-93.5973,2.0,292.2935755,12.54789624,-99999.0,'11111222,11111222,99999999' 
TABS,ioos:station:wmo:42047:1,2017-01-03T16:00:00Z,27.8966,-93.5973,2.0,296.0979128,14.79879049,-99999.0,'11111222,11111222,99999999' 
TABS,ioos:station:wmo:42047:1,2017-01-03T16:30:00Z,27.8966,-93.5973,2.0,294.0185686,16.7065137,-99999.0,'11111222,11111222,99999999' 
TABS,ioos:station:wmo:42047:1,2017-01-03T17:00:00Z,27.8966,-93.5973,2.0,289.0038661,16.89055653,-99999.0,'11111222,11111222,99999999' 
TABS,ioos:station:wmo:42047:1,2017-01-03T17:30:00Z,27.8966,-93.5973,2.0,297.5786393,12.1392751,-99999.0,'11111222,11111222,99999999' 
TABS,ioos:station:wmo:42047:1,2017-01-03T18:00:00Z,27.8966,-93.5973,2.0,296.4970925,11.25190206,-99999.0,'11111222,11111222,99999999' 
TABS,ioos:station:wmo:42047:1,2017-01-03T18:30:00Z,27.8966,-93.5973,2.0,320.5837775,6.976890425,-99999.0,'11133222,11111222,99999999' 
TABS,ioos:station:wmo:42047:1,2017-01-03T19:00:00Z,27.8966,-93.5973,2.0,314.0645354,7.793356145,-99999.0,'11133222,11111222,99999999' 
TABS,ioos:station:wmo:42047:1,2017-01-03T19:30:00Z,27.8966,-93.5973,2.0,318.5894266,7.906819841,-99999.0,'11133222,11111222,99999999' 
TABS,ioos:station:wmo:42047:1,2017-01-03T20:00:00Z,27.8966,-93.5973,2.0,321.2386338,7.027830391,-99999.0,'11133222,11111222,99999999' 
TABS,ioos:station:wmo:42047:1,2017-01-03T20:30:00Z,27.8966,-93.5973,2.0,329.2420201,5.259895436,-99999.0,'11133222,11111222,99999999' 
TABS,ioos:station:wmo:42047:1,2017-01-03T21:00:00Z,27.8966,-93.5973,2.0,348.231949,5.883672323,-99999.0,'11133222,11111222,99999999' 
TABS,ioos:station:wmo:42047:1,2017-01-03T21:30:00Z,27.8966,-93.5973,2.0,5.013312491,5.14969902,-99999.0,'11133222,11111222,99999999' 
TABS,ioos:station:wmo:42047:1,2017-01-03T22:00:00Z,27.8966,-93.5973,2.0,339.5343953,4.461614058,-99999.0,'11133222,11111222,99999999' 
TABS,ioos:station:wmo:42047:1,2017-01-03T22:30:00Z,27.8966,-93.5973,2.0,355.5675524,2.587740327,-99999.0,'11133222,11111222,99999999' 
TABS,ioos:station:wmo:42047:1,2017-01-03T23:00:00Z,27.8966,-93.5973,2.0,351.2014636,4.96847059,-99999.0,'11133222,11111222,99999999' 
TABS,ioos:station:wmo:42047:1,2017-01-03T23:30:00Z,27.8966,-93.5973,2.0,341.4245295,1.287050893,-99999.0,'11133222,11111222,99999999' 
TABS,ioos:station:wmo:42047:1,2017-01-04T00:00:00Z,27.8966,-93.5973,2.0,332.076686,3.395305583,-99999.0,'11133222,11111222,99999999' 
TABS,ioos:station:wmo:42047:1,2017-01-04T00:30:00Z,27.8966,-93.5973,2.0,279.1892355,2.066518812,-99999.0,'11133222,11111222,99999999' 
TABS,ioos:station:wmo:42047:1,2017-01-04T01:00:00Z,27.8966,-93.5973,2.0,295.4015502,3.963130076,-99999.0,'11133222,11111222,99999999' 
TABS,ioos:station:wmo:42047:1,2017-01-04T01:30:00Z,27.8966,-93.5973,2.0,216.869601,1.7,-99999.0,'11133222,11111222,99999999' 
TABS,ioos:station:wmo:42047:1,2017-01-04T02:00:00Z,27.8966,-93.5973,2.0,73.62802496,1.844803513,-99999.0,'11133222,11111222,99999999' 
TABS,ioos:station:wmo:42047:1,2017-01-04T02:30:00Z,27.8966,-93.5973,2.0,244.3344476,0.854283325,-99999.0,'11133222,11111222,99999999' 
TABS,ioos:station:wmo:42047:1,2017-01-04T03:00:00Z,27.8966,-93.5973,2.0,312.4108199,2.817161692,-99999.0,'11133222,11111222,99999999' 
TABS,ioos:station:wmo:42047:1,2017-01-04T03:30:00Z,27.8966,-93.5973,2.0,275.7713436,1.889576672,-99999.0,'11133222,11111222,99999999' 
TABS,ioos:station:wmo:42047:1,2017-01-04T04:00:00Z,27.8966,-93.5973,2.0,201.317652,0.440113622,-99999.0,'11133222,11111222,99999999' 
TABS,ioos:station:wmo:42047:1,2017-01-04T04:30:00Z,27.8966,-93.5973,2.0,30.2077523,1.68940818,-99999.0,'11133222,11111222,99999999' 
TABS,ioos:station:wmo:42047:1,2017-01-04T05:00:00Z,27.8966,-93.5973,2.0,99.36936319,4.05408436,-99999.0,'11133222,11111222,99999999' 
TABS,ioos:station:wmo:42047:1,2017-01-04T05:30:00Z,27.8966,-93.5973,2.0,131.4567004,4.576658169,-99999.0,'11133222,11111222,99999999' 
TABS,ioos:station:wmo:42047:1,2017-01-04T06:00:00Z,27.8966,-93.5973,2.0,137.0452985,2.377393531,-99999.0,'11133222,11111222,99999999' 
TABS,ioos:station:wmo:42047:1,2017-01-04T06:30:00Z,27.8966,-93.5973,2.0,173.6712368,5.443170032,-99999.0,'11133222,11111222,99999999' 
TABS,ioos:station:wmo:42047:1,2017-01-04T07:00:00Z,27.8966,-93.5973,2.0,155.7761458,6.458684076,-99999.0,'11133222,11111222,99999999' 
TABS,ioos:station:wmo:42047:1,2017-01-04T07:30:00Z,27.8966,-93.5973,2.0,164.3331549,4.517842405,-99999.0,'11133222,11111222,99999999' 
TABS,ioos:station:wmo:42047:1,2017-01-04T08:00:00Z,27.8966,-93.5973,2.0,184.2912565,6.147235151,-99999.0,'11133222,11111222,99999999' 
TABS,ioos:station:wmo:42047:1,2017-01-04T08:30:00Z,27.8966,-93.5973,2.0,195.7033472,6.83512253,-99999.0,'11133222,11111222,99999999' 
TABS,ioos:station:wmo:42047:1,2017-01-04T09:00:00Z,27.8966,-93.5973,2.0,199.1928165,8.364956665,-99999.0,'11133222,11111222,99999999' 
TABS,ioos:station:wmo:42047:1,2017-01-04T09:30:00Z,27.8966,-93.5973,2.0,189.8388039,11.00181803,-99999.0,'11111222,11111222,99999999' 
TABS,ioos:station:wmo:42047:1,2017-01-04T10:00:00Z,27.8966,-93.5973,2.0,213.5057458,7.771389837,-99999.0,'11133222,11111222,99999999' 
TABS,ioos:station:wmo:42047:1,2017-01-04T10:30:00Z,27.8966,-93.5973,2.0,217.6717493,7.42872802,-99999.0,'11133222,11111222,99999999' 
TABS,ioos:station:wmo:42047:1,2017-01-04T11:00:00Z,27.8966,-93.5973,2.0,214.1794727,8.437298146,-99999.0,'11133222,11111222,99999999' 
TABS,ioos:station:wmo:42047:1,2017-01-04T11:30:00Z,27.8966,-93.5973,2.0,246.6620634,14.61576204,-99999.0,'11111222,11111222,99999999' 
TABS,ioos:station:wmo:42047:1,2017-01-04T12:00:00Z,27.8966,-93.5973,2.0,242.6300902,17.83663645,-99999.0,'11111222,11111222,99999999' 
TABS,ioos:station:wmo:42047:1,2017-01-04T12:30:00Z,27.8966,-93.5973,2.0,266.3247519,15.60207999,-99999.0,'11111222,11111222,99999999' 
TABS,ioos:station:wmo:42047:1,2017-01-04T13:00:00Z,27.8966,-93.5973,2.0,271.7721717,20.69989614,-99999.0,'11111222,11111222,99999999' 
TABS,ioos:station:wmo:42047:1,2017-01-04T13:30:00Z,27.8966,-93.5973,2.0,274.5399994,19.96262508,-99999.0,'11111222,11111222,99999999' 
TABS,ioos:station:wmo:42047:1,2017-01-04T14:00:00Z,27.8966,-93.5973,2.0,280.5609617,21.44321105,-99999.0,'11111222,11111222,99999999' 
TABS,ioos:station:wmo:42047:1,2017-01-04T14:30:00Z,27.8966,-93.5973,2.0,290.6138011,24.54120005,-99999.0,'11111222,11111222,99999999' 
TABS,ioos:station:wmo:42047:1,2017-01-04T15:00:00Z,27.8966,-93.5973,2.0,295.4637064,22.09643636,-99999.0,'11111222,11111222,99999999' 
TABS,ioos:station:wmo:42047:1,2017-01-04T15:30:00Z,27.8966,-93.5973,2.0,297.156169,25.59092222,-99999.0,'11111222,11111222,99999999' 
TABS,ioos:station:wmo:42047:1,2017-01-04T16:00:00Z,27.8966,-93.5973,2.0,303.0967973,23.82565214,-99999.0,'11111222,11111222,99999999' 